TimeCST,TemperatureF,Dew PointF,Humidity,Sea Level PressureIn,VisibilityMPH,Wind Direction,Wind SpeedMPH,Gust SpeedMPH,PrecipitationIn,Events,Conditions,WindDirDegrees,DateUTC
12:53 AM,50.0,37.0,61,29.76,10.0,South,19.6,26.5,N/A,,Mostly Cloudy,180,2013-01-27 06:53:00
1:53 AM,48.0,37.9,68,29.74,10.0,South,18.4,25.3,N/A,,Mostly Cloudy,190,2013-01-27 07:53:00
2:53 AM,48.0,39.9,74,29.73,10.0,South,20.7,27.6,N/A,,Clear,190,2013-01-27 08:53:00
3:53 AM,48.0,41.0,77,29.70,10.0,South,20.7,27.6,N/A,,Clear,190,2013-01-27 09:53:00
4:53 AM,46.0,41.0,83,29.68,10.0,South,19.6,-,N/A,,Clear,190,2013-01-27 10:53:00
5:53 AM,48.9,39.9,71,29.66,10.0,South,18.4,-,N/A,,Clear,190,2013-01-27 11:53:00
6:53 AM,51.1,41.0,68,29.65,10.0,SSW,26.5,34.5,N/A,,Clear,200,2013-01-27 12:53:00
7:53 AM,51.1,41.0,68,29.69,10.0,SSW,19.6,31.1,N/A,,Clear,210,2013-01-27 13:53:00
8:53 AM,52.0,39.9,63,29.67,10.0,SSW,24.2,31.1,N/A,,Clear,210,2013-01-27 14:53:00
9:53 AM,57.0,39.9,53,29.68,10.0,SW,26.5,34.5,N/A,,Clear,220,2013-01-27 15:53:00
10:53 AM,63.0,39.0,41,29.68,10.0,WSW,25.3,34.5,N/A,,Clear,240,2013-01-27 16:53:00
11:53 AM,68.0,37.9,33,29.65,10.0,WSW,28.8,34.5,N/A,,Clear,240,2013-01-27 17:53:00
12:53 PM,72.0,37.0,28,29.62,10.0,WSW,23.0,34.5,N/A,,Clear,240,2013-01-27 18:53:00
1:53 PM,73.9,34.0,23,29.60,10.0,WSW,21.9,33.4,N/A,,Clear,240,2013-01-27 19:53:00
2:53 PM,75.0,33.1,22,29.59,10.0,West,17.3,29.9,N/A,,Clear,260,2013-01-27 20:53:00
3:53 PM,75.0,33.1,22,29.59,10.0,WSW,15.0,-,N/A,,Clear,240,2013-01-27 21:53:00
4:53 PM,73.0,33.1,23,29.60,10.0,SW,19.6,-,N/A,,Clear,220,2013-01-27 22:53:00
5:53 PM,68.0,34.0,28,29.62,10.0,SSW,16.1,-,N/A,,Clear,210,2013-01-27 23:53:00
6:53 PM,59.0,33.1,38,29.66,10.0,SSW,11.5,-,N/A,,Clear,200,2013-01-28 00:53:00
7:53 PM,57.0,32.0,39,29.68,10.0,SSW,13.8,-,N/A,,Clear,210,2013-01-28 01:53:00
8:53 PM,55.0,30.9,40,29.69,10.0,SW,16.1,-,N/A,,Clear,220,2013-01-28 02:53:00
9:53 PM,54.0,30.9,41,29.69,10.0,SW,15.0,-,N/A,,Clear,230,2013-01-28 03:53:00
10:53 PM,53.1,32.0,45,29.70,10.0,SW,18.4,-,N/A,,Clear,220,2013-01-28 04:53:00
11:53 PM,48.9,30.9,50,29.70,10.0,SW,16.1,-,N/A,,Clear,230,2013-01-28 05:53:00